Meteo Giornale » Osservazioni meteo Gran Bretagna » Bournemouth

ore: 18:50 - Osservazioni Meteo Bournemouth
Lat. 50° 47' N Lon. 1° 50' W Alt. 11 metri s.l.m.

poco_nuvoloso Europe/London

17 °C

Poco Nuvoloso

Temp. 24 Ore

14 °C

20 °C

Nord-Ovest

20.3 Km/h

Dew point 12 °C

Umidità 72 %

Visibilità  10 Km

Il sole sorge alle ore 06:47

Il sole tramonta alle ore 19:14

Data e Ora Cielo e Fenomeni T °C DP °C Um. % Pres. hPa Vis. km Vento km/h
Oggi h: 18:50 poco_nuvoloso Poco Nuvoloso 17 12 72 1016 10 NO 20.3
Oggi h: 18:20 nuvoloso Nuvoloso 18 12 67 1016 10 NO 14.8
Oggi h: 17:50 molto_nuvoloso Molto Nuvoloso 18 11 63 1016 10 O/NO 11.1
Oggi h: 17:20 molto_nuvoloso Rovescio nelle Vicinanze 18 12 67 1015 10 N/NO 9.3
Oggi h: 16:50 molto_nuvoloso Molto Nuvoloso 18 12 67 1015 10 NO 14.8
Oggi h: 16:20 molto_nuvoloso Molto Nuvoloso 19 12 63 1015 10 O/NO 20.3
Oggi h: 15:50 molto_nuvoloso Rovescio nelle Vicinanze 18 12 67 1015 7 O/NO 24
Oggi h: 15:20 molto_nuvoloso Molto Nuvoloso 18 12 67 1015 10 O/NO 18.5
Oggi h: 14:50 molto_nuvoloso Molto Nuvoloso 20 12 59 1015 10 N 5.5
Oggi h: 14:20 molto_nuvoloso Molto Nuvoloso 20 12 59 1015 10 N/NO 9.3
Oggi h: 13:50 nuvoloso Nuvoloso 20 12 59 1015 10 N 11.1
Oggi h: 13:20 nuvoloso Nuvoloso 19 12 63 1015 10 O/NO 13
Oggi h: 12:50 poco_nuvoloso Poco Nuvoloso 19 12 63 1015 10 NO 16.7
Oggi h: 12:20 poco_nuvoloso Poco Nuvoloso 20 12 59 1015 10 O/NO 14.8
Oggi h: 11:20 poco_nuvoloso Poco Nuvoloso 18 13 72 1015 10 NO 13
Oggi h: 10:50 poco_nuvoloso Poco Nuvoloso 17 14 82 1015 10 O/NO 11.1
Oggi h: 10:20 poco_nuvoloso Poco Nuvoloso 16 14 87 1015 10 O 11.1
Oggi h: 09:50 nuvoloso Nuvoloso 16 14 87 1015 10 O 11.1
Oggi h: 09:20 nuvoloso Nuvoloso 15 13 87 1014 10 N 5.5
Oggi h: 08:20 nuvoloso Nuvoloso 14 13 93 1014 10 N 5.5
Oggi h: 07:50 molto_nuvoloso Molto Nuvoloso 14 13 93 1014 10 N/NO 9.3
Oggi h: 07:20 molto_nuvoloso Molto Nuvoloso 15 13 87 1014 10 NO 13
Oggi h: 06:50 coperto_pioggia Pioggia Debole 15 14 93 1013 10 NO 14.8
Oggi h: 06:20 coperto_pioggia Pioggia Debole 15 15 100 1013 10 NO 16.7
Oggi h: 05:50 molto_nuvoloso Molto Nuvoloso 15 15 100 1013 10 NO 13
Ieri h: 21:20 sereno Sereno 15 13 87 1013 10 N 0
Ieri h: 20:50 poco_nuvoloso Poco Nuvoloso 15 13 87 1013 10 N 0
Ieri h: 20:20 poco_nuvoloso Poco Nuvoloso 17 15 88 1013 10 N 1.8
Ieri h: 19:50 poco_nuvoloso Poco Nuvoloso 17 15 88 1013 10 N 3.7